"Pseudo-MPEC" for P117Wka

Created 2020 Oct 21 5:07:21 UT using Find_Orb

Click here for an explanation of pseudo-MPECs

 
 Astrometry: 
     P117Wka  C2020 10 15Ydny7QY72OY[!AstrometryGJV3sx9=ye[H'0qmC[Bredacted;rF51
     P117Wka  C2020 10 15GUS8goA*B!URh(P(clicky)m[hereQtEHAh^70V^e/P,Xq`cmarEF51
     P117Wka  C2020 10 15POXTYKifordy4g@K2f[explanationJ+E!k#LQ@t8lshGI!\%jF$F51
     P117Wka  C2020 10 15$3yZ8et5+?jPv='q7?c0b03eoBU3)SGB!pT`iD6e;=6,]=ydP;PFF51

Station data:
(F51) Pan-STARRS 1, Haleakala  (N20.707235 W156.255910)  US/Hawaii.
   Observers N. Primak, A. Schultz, S. Watters, J. Thiel, T. Goggia. Measurer
   PS1 Science Consortium. 1.8-m Ritchey-Chrétien + CCD.

Orbital elements:  P117Wka
   Perihelion 2020 Nov 11.594387 +/- 54.5 TT = 14:15:55 (JD 2459165.094387)
Epoch 2020 Oct 15.0 TT = JDT 2459137.5   Earth MOID: 0.3479   Ma: 0.0540
M 349.43015623 +/- 26               (J2000 ecliptic)          AutoNEOCP
n   0.38304325 +/- 0.303            Peri.   20.01313 +/- 60
a   1.87774883 +/- 0.988            Node    19.41124 +/- 17
e   0.2909589 +/- 0.27              Incl.   25.95219 +/- 14
P   2.57/939.82d           H 23.3   G  0.15   U 11.9  SR
q 1.33140093 +/- 0.321    Q 2.42409672 +/- 34.3
From 4 observations 2020 Oct. 15 (48.0 min); mean residual 0".10
Residuals in arcseconds: 
201015 F51  .11-  .03-    201015 F51  .20+  .01-    
201015 F51  .06+  .06+    201015 F51  .14-  .01-    

Ephemerides (geocentric):
Date (UTC) HH   RA              Dec         delta   r     elong  mag " sig PA
---- -- -- --  -------------   -----------  ------ ------ -----  --- ---- ---
2020 10 21 05  00 28 05.904   +11 02 40.78  .36090 1.3424 161.4 22.5  34d 176
2020 10 21 06  00 27 58.404   +11 04 57.90  .36097 1.3424 161.3 22.5  34d 176
2020 10 21 07  00 27 50.903   +11 07 14.95  .36105 1.3423 161.2 22.5  34d 176
2020 10 21 08  00 27 43.400   +11 09 31.94  .36112 1.3423 161.2 22.5  34d 176
2020 10 21 09  00 27 35.895   +11 11 48.86  .36119 1.3422 161.1 22.5  34d 176
2020 10 21 10  00 27 28.389   +11 14 05.72  .36127 1.3422 161.0 22.5  34d 176
2020 10 21 11  00 27 20.881   +11 16 22.50  .36134 1.3421 161.0 22.5  34d 176
2020 10 21 12  00 27 13.371   +11 18 39.22  .36141 1.3421 160.9 22.5  34d 176
2020 10 21 13  00 27 05.860   +11 20 55.87  .36148 1.3421 160.8 22.5  34d 176
2020 10 21 14  00 26 58.347   +11 23 12.46  .36156 1.3420 160.8 22.5  34d 176
2020 10 21 15  00 26 50.833   +11 25 28.97  .36163 1.3420 160.7 22.5  34d 176
2020 10 21 16  00 26 43.316   +11 27 45.42  .36170 1.3419 160.6 22.5  34d 176
2020 10 21 17  00 26 35.798   +11 30 01.81  .36177 1.3419 160.6 22.5  34d 176
2020 10 21 18  00 26 28.279   +11 32 18.12  .36185 1.3418 160.5 22.5  34d 176
2020 10 21 19  00 26 20.757   +11 34 34.37  .36192 1.3418 160.4 22.5  34d 176
2020 10 21 20  00 26 13.234   +11 36 50.55  .36199 1.3417 160.4 22.5  34d 176
2020 10 21 21  00 26 05.709   +11 39 06.67  .36206 1.3417 160.3 22.5  34d 176
2020 10 21 22  00 25 58.182   +11 41 22.72  .36214 1.3416 160.2 22.5  34d 177
2020 10 21 23  00 25 50.653   +11 43 38.70  .36221 1.3416 160.2 22.5  34d 177
2020 10 22 00  00 25 43.123   +11 45 54.61  .36228 1.3415 160.1 22.5  34d 177
2020 10 22 01  00 25 35.590   +11 48 10.46  .36235 1.3415 160.0 22.6  34d 177
2020 10 22 02  00 25 28.056   +11 50 26.24  .36243 1.3414 159.9 22.6  34d 177
2020 10 22 03  00 25 20.520   +11 52 41.96  .36250 1.3414 159.9 22.6  35d 177
2020 10 22 04  00 25 12.982   +11 54 57.61  .36257 1.3413 159.8 22.6  35d 177
2020 10 22 05  00 25 05.442   +11 57 13.19  .36264 1.3413 159.7 22.6  35d 177
2020 10 22 06  00 24 57.901   +11 59 28.71  .36272 1.3412 159.7 22.6  35d 177
2020 10 22 07  00 24 50.357   +12 01 44.15  .36279 1.3412 159.6 22.6  35d 177
2020 10 22 08  00 24 42.811   +12 03 59.54  .36286 1.3411 159.5 22.6  35d 177
2020 10 22 09  00 24 35.263   +12 06 14.85  .36293 1.3411 159.5 22.6  35d 177
2020 10 22 10  00 24 27.714   +12 08 30.10  .36301 1.3410 159.4 22.6  35d 177
2020 10 22 11  00 24 20.162   +12 10 45.29  .36308 1.3409 159.3 22.6  35d 177
2020 10 22 12  00 24 12.608   +12 13 00.40  .36315 1.3409 159.3 22.6  35d 177
2020 10 22 13  00 24 05.053   +12 15 15.45  .36322 1.3408 159.2 22.6  35d 177
2020 10 22 14  00 23 57.495   +12 17 30.44  .36330 1.3408 159.1 22.6  36d 177
2020 10 22 15  00 23 49.935   +12 19 45.36  .36337 1.3407 159.1 22.6  36d 177
2020 10 22 16  00 23 42.373   +12 22 00.21  .36344 1.3407 159.0 22.6  36d 177
2020 10 22 17  00 23 34.809   +12 24 15.00  .36351 1.3406 158.9 22.6  36d 177
2020 10 22 18  00 23 27.243   +12 26 29.72  .36358 1.3405 158.9 22.6  36d 177
2020 10 22 19  00 23 19.674   +12 28 44.37  .36366 1.3405 158.8 22.6  36d 177
2020 10 22 20  00 23 12.104   +12 30 58.96  .36373 1.3404 158.7 22.6  36d 177
2020 10 22 21  00 23 04.531   +12 33 13.48  .36380 1.3404 158.6 22.6  36d 177
2020 10 22 22  00 22 56.956   +12 35 27.94  .36387 1.3403 158.6 22.6  36d 177
2020 10 22 23  00 22 49.379   +12 37 42.33  .36395 1.3402 158.5 22.6  36d 177
2020 10 23 00  00 22 41.800   +12 39 56.65  .36402 1.3402 158.4 22.6  36d 177
2020 10 23 01  00 22 34.218   +12 42 10.91  .36409 1.3401 158.4 22.6  36d 177
2020 10 23 02  00 22 26.635   +12 44 25.10  .36416 1.3401 158.3 22.6  36d 177
2020 10 23 03  00 22 19.049   +12 46 39.23  .36423 1.3400 158.2 22.6  36d 177
2020 10 23 04  00 22 11.460   +12 48 53.29  .36431 1.3399 158.2 22.6  36d 177